Weather reports worldwide

Advertisment
Rodez, France (7552): temperature & dewpoint: 16.03.2019 18:00:00 - 22.03.2019 18:00:00 (CET)Rodez, France (7552): temperature 5cm: 16.03.2019 18:00:00 - 22.03.2019 18:00:00 (CET)Rodez, France (7552): wind speed & gusts: 16.03.2019 18:00:00 - 22.03.2019 18:00:00 (CET)Rodez, France (7552): wind direction: 16.03.2019 18:00:00 - 22.03.2019 18:00:00 (CET)Rodez, France (7552): reduced air pressure: 16.03.2019 18:00:00 - 22.03.2019 18:00:00 (CET)Rodez, France (7552): visibility: 16.03.2019 18:00:00 - 22.03.2019 18:00:00 (CET)Rodez, France (7552): sunshine duration: 16.03.2019 18:00:00 - 22.03.2019 18:00:00 (CET)Rodez, France (7552): precipitation: 16.03.2019 18:00:00 - 22.03.2019 18:00:00 (CET)
Date & Time tt [°C] td [°C] tt 5cm [°C] ff [km/h] ff [kn] fx [km/h] fx [kn] dd ppp [hPa] vv [km] sd [min] rr [mm]
22.03.2019 18:00:00 17,4 3,3 19,5 9 5 16 8 WNW 1025,2 52 60 0,0
22.03.2019 17:00:00 18,6 1,6 22,5 8 4 23 13 WNW 1025,1 31 60 0,0
22.03.2019 16:00:00 19,1 1,1 24,3 6 3 17 9 NNE 1025,3 52 60 0,0
22.03.2019 15:00:00 18,5 1,0 24,4 4 2 18 10 ENE 1025,9 17 60 0,0
22.03.2019 14:00:00 18,2 -0,1 24,1 8 5 18 10 S 1026,5 39 60 0,0
22.03.2019 13:00:00 17,5 -1,2 22,7 6 3 13 7 W 1027,2 37 60 0,0
22.03.2019 12:00:00 16,1 0,6 22,6 5 3 11 6 ENE 1027,8 20 60 0,0
22.03.2019 11:00:00 14,5 2,4 18,2 4 2 11 6 N 1028,5 50 60 0,0
22.03.2019 10:00:00 10,8 0,8 13,2 3 2 11 6 E 1029,4 39 60 0,0
22.03.2019 09:00:00 7,1 0,5 4,9 6 3 11 6 E 1030,0 20 60 0,0
22.03.2019 08:00:00 1,4 -0,7 -2,4 4 2 10 6 ESE 1031,4 20 26 0,0
22.03.2019 07:00:00 0,9 -3,0 -1,2 10 5 12 6 ESE 1031,0 26 0 0,0
22.03.2019 06:00:00 1,4 -2,0 -5,2 8 4 12 7 ESE 1030,6 24 0 0,0
22.03.2019 05:00:00 -1,0 -2,9 -5,2 5 3 11 6 SE 1031,4 22 0 0,0
22.03.2019 04:00:00 -0,5 -2,7 -4,7 6 4 8 5 E 1031,3 17 0 0,0
22.03.2019 03:00:00 0,1 -2,0 -4,4 3 2 8 5 ESE 1031,4 21 0 0,0
22.03.2019 02:00:00 0,9 -1,3 -4,4 5 3 8 5 SE 1031,2 18 0 0,0
22.03.2019 01:00:00 0,5 -2,6 -3,8 5 3 8 4 SSE 1031,4 20 0 0,0
22.03.2019 00:00:00 2,1 -1,0 -3,5 0 0 5 3 N 1030,9 33 0 0,0
21.03.2019 23:00:00 3,3 -0,3 -3,5 4 2 8 4 SE 1030,7 25 0 0,0
21.03.2019 22:00:00 2,5 -1,5 -2,2 5 3 6 3 SE 1030,8 40 0 0,0
21.03.2019 21:00:00 5,1 -0,1 -1,5 3 2 7 4 SSW 1029,9 48 0 0,0
21.03.2019 20:00:00 8,0 -1,8 -0,4 5 3 11 6 W 1028,9 56 0 0,0
21.03.2019 19:00:00 9,8 -1,0 5,4 10 6 14 8 WNW 1028,2 58 41 0,0
21.03.2019 18:00:00 12,8 0,2 15,0 12 6 18 10 WNW 1027,2 59 60 0,0
21.03.2019 17:00:00 14,1 -0,4 18,9 9 5 17 9 WNW 1026,8 37 60 0,0
21.03.2019 16:00:00 14,3 -1,0 19,9 9 5 19 10 NNW 1026,8 58 60 0,0
21.03.2019 15:00:00 13,7 -0,4 20,1 6 3 32 17 WSW 1027,1 50 60 0,0
21.03.2019 14:00:00 13,5 0,1 19,4 7 4 19 11 SSE 1027,7 60 60 0,0
21.03.2019 13:00:00 12,9 -0,4 19,7 7 4 16 8 W 1028,4 60 60 0,0
21.03.2019 12:00:00 11,3 -2,5 17,7 6 3 17 9 ESE 1028,9 47 60 0,0
21.03.2019 11:00:00 9,8 -3,2 15,9 6 3 12 6 SSE 1029,4 50 60 0,0
21.03.2019 10:00:00 7,7 -2,1 10,1 4 2 9 5 E 1030,0 42 60 0,0
21.03.2019 09:00:00 4,0 -2,4 2,3 4 2 8 4 ESE 1031,2 36 60 0,0
21.03.2019 08:00:00 -1,4 -2,7 -6,7 4 2 6 4 SE 1032,5 18 30 0,0
21.03.2019 07:00:00 -2,6 -4,2 -8,5 3 2 5 3 NNW 1032,3 28 0 0,0
21.03.2019 06:00:00 -3,9 -6,4 -7,9 2 1 6 3 SE 1032,4 28 0 0,0
21.03.2019 05:00:00 -2,2 -5,9 -7,1 0 0 4 2 N 1031,8 39 0 0,0
21.03.2019 04:00:00 -2,4 -5,1 -7,1 4 2 7 4 S 1031,9 42 0 0,0
21.03.2019 03:00:00 -1,7 -5,4 -5,9 3 2 7 4 S 1032,1 46 0 0,0
21.03.2019 02:00:00 -0,3 -5,7 -4,9 0 0 6 4 N 1032,3 52 0 0,0
21.03.2019 01:00:00 2,8 -4,0 -2,7 4 2 12 7 ENE 1031,7 58 0 0,0
21.03.2019 00:00:00 4,8 -3,7 0,5 10 5 18 10 N 1031,3 60 0 0,0
20.03.2019 23:00:00 5,5 -3,9 2,4 14 8 25 13 N 1031,5 60 0 0,0
20.03.2019 22:00:00 6,6 -3,6 4,9 12 6 28 15 NNE 1031,3 60 0 0,0
20.03.2019 21:00:00 7,5 -4,0 6,2 17 9 31 17 NNE 1030,6 60 0 0,0
20.03.2019 20:00:00 8,5 -4,4 6,1 16 9 31 17 NNE 1030,1 60 0 0,0
20.03.2019 19:00:00 9,4 -4,9 6,8 13 7 31 17 N 1029,4 60 40 0,0
20.03.2019 18:00:00 11,4 -5,2 14,2 17 9 33 18 N 1028,3 60 60 0,0
20.03.2019 17:00:00 12,0 -5,5 16,2 19 11 34 18 NNW 1027,9 48 60 0,0
20.03.2019 16:00:00 12,3 -5,7 17,4 16 9 36 20 N 1027,9 19 60 0,0
20.03.2019 15:00:00 12,0 -5,5 17,7 18 10 32 18 N 1028,3 38 60 0,0
20.03.2019 14:00:00 11,8 -4,8 17,1 18 10 37 20 NNW 1028,7 20 60 0,0
20.03.2019 13:00:00 10,7 -5,4 16,4 19 10 39 21 N 1029,4 41 60 0,0
20.03.2019 12:00:00 9,4 -4,2 13,6 16 9 37 20 N 1030,1 20 60 0,0
20.03.2019 11:00:00 7,9 -3,6 12,3 19 11 37 20 NNW 1030,7 40 60 0,0
20.03.2019 10:00:00 6,4 -2,2 7,8 20 11 32 17 NNW 1031,0 20 60 0,0
20.03.2019 09:00:00 4,2 -2,4 3,9 16 9 29 16 NNW 1031,2 45 60 0,0
20.03.2019 08:00:00 2,3 -2,8 -0,2 16 9 26 14 NNW 1031,3 20 26 0,0
20.03.2019 07:00:00 1,4 -3,1 -0,3 14 8 28 15 NNW 1031,2 60 0 0,0
20.03.2019 06:00:00 2,3 -3,4 -2,2 13 7 21 12 N 1030,6 60 0 0,0
20.03.2019 05:00:00 2,2 -3,7 -1,7 10 6 23 12 N 1030,9 60 0 0,0
20.03.2019 04:00:00 2,1 -4,0 -2,0 11 6 17 9 N 1030,7 60 0 0,0
20.03.2019 03:00:00 2,3 -4,0 -2,9 9 5 20 11 NNW 1030,9 60 0 0,0
20.03.2019 02:00:00 1,5 -4,6 -2,2 2 1 20 11 W 1031,5 60 0 0,0
20.03.2019 01:00:00 4,2 -4,3 -0,1 10 5 21 11 NNW 1030,8 60 0 0,0
20.03.2019 00:00:00 3,8 -3,9 -0,1 12 7 22 12 N 1030,8 60 0 0,0
19.03.2019 23:00:00 4,6 -3,7 1,4 14 8 26 14 N 1030,4 60 0 0,0
19.03.2019 22:00:00 4,9 -3,6 0,7 13 7 18 10 N 1029,8 60 0 0,0
19.03.2019 21:00:00 4,7 -4,3 2,1 6 3 16 9 NNE 1029,3 60 0 0,0
19.03.2019 20:00:00 5,8 -4,1 3,7 10 5 17 9 NNE 1028,7 60 0 0,0
19.03.2019 19:00:00 7,0 -3,8 5,4 11 6 29 16 NNE 1027,6 60 7 0,0
19.03.2019 18:00:00 8,0 -4,2 7,7 18 10 31 17 NNE 1026,6 60 10 0,0
19.03.2019 17:00:00 8,8 -3,1 9,8 14 8 28 15 N 1026,0 60 16 0,0
19.03.2019 16:00:00 9,0 -2,6 9,7 17 9 32 17 N 1025,6 59 16 0,0
19.03.2019 15:00:00 7,9 -3,6 8,8 16 9 40 21 NNE 1025,8 54 35 0,0
19.03.2019 14:00:00 8,2 -0,1 9,2 18 10 31 17 N 1026,1 55 12 0,0
19.03.2019 13:00:00 7,3 1,6 7,9 18 10 36 19 NNW 1026,6 60 8 0,0
19.03.2019 12:00:00 6,5 0,6 9,7 15 8 37 20 NNW 1026,6 55 36 0,0
19.03.2019 11:00:00 5,9 2,4 8,1 15 8 27 14 N 1026,6 60 44 0,0
19.03.2019 10:00:00 4,2 1,9 4,4 13 7 22 12 NNW 1026,8 50 31 0,0
19.03.2019 09:00:00 3,1 2,1 3,1 16 9 22 12 NW 1027,0 60 24 0,0
19.03.2019 08:00:00 2,4 1,8 2,1 9 5 19 10 WNW 1026,5 51 0 0,0
19.03.2019 07:00:00 2,2 1,6 2,0 10 6 23 12 NW 1025,7 60 0 0,0
19.03.2019 06:00:00 2,3 2,0 2,1 16 9 26 14 NW 1025,5 28 0 0,0
19.03.2019 05:00:00 2,6 2,2 1,8 16 8 23 12 NW 1025,6 52 0 0,0
19.03.2019 04:00:00 2,4 2,0 1,8 14 7 22 12 WNW 1025,5 55 0 0,0
19.03.2019 03:00:00 2,5 1,9 1,9 16 9 27 15 WNW 1025,5 49 0 0,0
19.03.2019 02:00:00 2,5 2,1 2,3 15 8 22 12 WNW 1025,7 21 0 0,0
19.03.2019 01:00:00 2,7 2,1 2,5 16 9 27 15 WNW 1026,1 11 0 0,4
19.03.2019 00:00:00 2,9 2,5 2,6 21 11 33 18 WNW 1026,5 14 0 0,6
18.03.2019 23:00:00 3,3 2,7 2,9 20 11 29 16 NW 1026,8 11 0 1,2
18.03.2019 22:00:00 3,9 2,6 2,7 12 6 21 12 WNW 1026,6 11 0 0,2
18.03.2019 21:00:00 3,8 1,7 2,5 10 5 18 10 NW 1026,0 59 0 0,0
18.03.2019 20:00:00 3,8 1,7 1,0 11 6 14 8 W 1025,7 60 0 0,0
18.03.2019 19:00:00 5,2 0,9 4,7 8 4 16 8 NNW 1025,3 60 0 0,0
18.03.2019 18:00:00 5,4 1,3 5,4 16 8 40 22 NNW 1025,1 60 27 0,0
18.03.2019 17:00:00 7,2 0,8 7,4 20 11 43 23 NW 1024,1 57 14 0,0
18.03.2019 16:00:00 6,6 1,5 7,0 34 19 44 24 WNW 1024,6 52 17 0,0
18.03.2019 15:00:00 6,6 2,3 5,2 16 8 32 17 NW 1024,9 44 10 0,2
18.03.2019 14:00:00 5,2 3,8 4,2 24 13 47 25 NW 1025,7 4,0 10 0,4
18.03.2019 13:00:00 5,9 1,6 6,4 23 12 41 22 WNW 1025,8 20 0 0,0
18.03.2019 12:00:00 5,7 1,6 5,8 24 13 39 21 WNW 1026,2 60 28 0,0
18.03.2019 11:00:00 4,4 1,4 5,1 21 11 33 18 NW 1026,6 51 15 0,0
18.03.2019 10:00:00 3,9 1,6 4,1 17 9 34 19 NW 1026,5 54 31 0,0
18.03.2019 09:00:00 2,4 1,8 1,5 20 11 32 17 NW 1026,4 43 4 0,0
18.03.2019 08:00:00 1,2 0,9 -0,1 16 8 23 12 W 1026,0 20 8 0,0
18.03.2019 07:00:00 0,6 -0,1 -0,1 18 10 34 18 W 1025,6 41 0 0,0
18.03.2019 06:00:00 1,1 0,7 0,6 25 13 35 19 W 1024,6 35 0 0,0
18.03.2019 05:00:00 1,8 0,8 1,2 22 12 36 20 W 1024,2 44 0 0,0
18.03.2019 04:00:00 2,6 1,6 1,9 22 12 41 22 WNW 1023,8 35 0 0,0
18.03.2019 03:00:00 2,7 1,4 1,7 24 13 40 22 WNW 1023,5 54 0 0,0
18.03.2019 02:00:00 2,6 1,4 2,0 26 14 40 22 WNW 1023,9 12 0 0,0
18.03.2019 01:00:00 3,4 1,1 2,0 23 12 39 21 W 1023,9 60 0 0,2
18.03.2019 00:00:00 3,6 0,1 2,1 22 12 34 19 W 1023,7 60 0 0,0
17.03.2019 23:00:00 3,0 -0,8 1,8 25 13 41 22 W 1024,1 60 0 0,0
17.03.2019 22:00:00 3,6 -1,6 2,4 27 15 52 28 W 1023,3 60 0 0,0
17.03.2019 21:00:00 4,1 -1,1 2,9 29 15 40 22 W 1022,7 60 0 0,0
17.03.2019 20:00:00 5,2 -0,2 3,6 28 15 40 22 WNW 1021,5 60 0 0,0
17.03.2019 19:00:00 5,5 0,7 4,3 28 15 47 26 WNW 1020,7 60 23 0,0
17.03.2019 18:00:00 7,0 2,5 6,0 25 14 41 22 WNW 1019,4 56 49 0,0
17.03.2019 17:00:00 5,7 4,0 5,2 32 17 45 24 WNW 1019,5 17 19 0,0
17.03.2019 16:00:00 6,6 2,5 5,4 22 12 56 30 W 1019,1 60 6 0,2
17.03.2019 15:00:00 5,5 4,3 5,7 39 21 62 34 NW 1019,2 13 0 0,2
17.03.2019 14:00:00 8,1 6,2 7,5 32 17 46 25 W 1017,6 20 0 0,2
17.03.2019 13:00:00 7,9 7,0 8,4 19 10 31 17 SSW 1017,7 7 0 0,0
17.03.2019 12:00:00 8,0 6,1 9,1 20 11 32 18 SSW 1017,9 20 0 0,0
17.03.2019 11:00:00 8,6 6,4 7,8 18 10 26 14 SW 1017,9 19 0 0,0
17.03.2019 10:00:00 7,4 5,7 6,7 19 10 26 14 WSW 1018,3 18 4 0,0
17.03.2019 09:00:00 6,4 5,5 6,0 14 8 24 13 WSW 1018,2 11 0 0,0
17.03.2019 08:00:00 5,8 5,2 4,7 16 9 29 15 W 1017,5 9 0 0,0
17.03.2019 07:00:00 4,8 4,5 2,9 21 11 40 22 W 1016,8 9 0 0,0
17.03.2019 06:00:00 6,2 1,5 -2,3 16 9 37 20 W 1014,7 57 0 0,0
17.03.2019 05:00:00 2,4 -0,4 -2,1 3 1 5 3 N 1014,8 46 0 0,0
17.03.2019 04:00:00 1,7 -0,4 -2,2 2 1 11 6 S 1015,0 36 0 0,0
17.03.2019 03:00:00 3,5 -1,1 -1,0 6 4 14 7 ESE 1014,9 60 0 0,0
17.03.2019 02:00:00 3,1 -1,5 -1,4 7 4 11 6 ESE 1015,8 60 0 0,0
17.03.2019 01:00:00 4,7 -1,5 0,9 8 4 13 7 E 1016,1 60 0 0,0
17.03.2019 00:00:00 5,9 -0,4 -0,9 3 2 11 6 SSW 1016,7 60 0 0,0
16.03.2019 23:00:00 5,8 -0,1 0,4 11 6 18 10 SSE 1017,1 60 0 0,0
16.03.2019 22:00:00 7,4 1,2 1,3 8 4 14 7 SSE 1016,6 60 0 0,0
16.03.2019 21:00:00 7,2 2,1 1,6 5 3 10 6 SSE 1016,9 60 0 0,0
16.03.2019 20:00:00 9,3 3,5 2,7 6 3 11 6 SSE 1016,2 60 0 0,0
16.03.2019 19:00:00 13,9 3,1 9,6 8 5 12 7 SSE 1015,7 60 35 0,0
16.03.2019 18:00:00 17,6 3,5 19,7 6 4 11 6 SW 1015,3 60 60 0,0

tt = temperature
td = dewpoint
tt 5cm = temperature 5cm
ff = wind speed
fx = gusts
dd = wind direction
ppp = reduced air pressure
vv = visibility
sd = sunshine duration
rr = precipitation

Next stations